User: anonymous   Login
Location: *
(10.4782°N, 67.2163°W)
Time: 15:42:34
(UTC+00:00)
Language:

ARIANE 5 R/B - Orbit

View from above orbital plane
View from above orbital plane
View from above satellite
View from above satellite

Ground track
Ground track

The orbit data is extracted from the following two-line orbital elements,

1 33754U 09008F   24207.45901881  .00000322  00000-0  53331-3 0  9995
2 33754   2.4974 356.0139 7116539  19.5513 357.5660  2.45852074133199
Epoch (UTC): 25 July 2024 11:00:59
Eccentricity: 0.7116539
inclination: 2.4974°
perigee height: 308 km
apogee height: 33313 km
right ascension of ascending node: 356.0139°
argument of perigee: 19.5513°
revolutions per day: 2.45852074
mean anomaly at epoch: 357.5660°
orbit number at epoch: 13319

The dashed part of the orbit path shows where the satellite is in the earth's shadow,  

DLR